SCP
0 0 0 0 0 0 0 0 0 0 0 0 0 0 0 0 0 0 0 0 0 0 0 0 0 0 0 0 0 0 0 0 0 0 0 0 0 0 0 0 0 0 0
0 0 0 0 0 0 0 0 0 0 0 0 0 0 0 0 0 0 0 0 0 0 0 0 0 0 0 0 0 0 0 0 0 0 0 0 0 0 0 0 0 0 0
0 0 0 0 0 0 0 0 0 0 0 0 0 0 0 0 0 0 0 0 0 0 0 0 0 0 0 0 0 0 0 0 0 0 0 0 0 0 0 0 0 0 0
0 0 0 0 0 0 0 0 0 0 0 0 0 0 0 0 0 0 0 0 0 0 0 0 0 0 0 0 0 0 0 0 0 0 0 0 0 0 0 0 0 0 0
0 0 0 0 0 0 0 0 0 0 0 0 0 0 0 0 0 0 0 0 0 0 0 0 0 0 0 0 0 0 0 0 0 0 0 0 0 0 0 0 0 0 0
0 0 0 0 0 0 0 0 0 0 0 0 0 0 0 0 0 0 0 0 0 0 0 0 0 0 0 0 0 0 0 0 0 0 0 0 0 0 0 0 0 0 0
0 0 0 0 0 0 0 0 0 0 0 0 0 0 0 0 0 0 0 0 0 0 0 0 0 0 0 0 0 0 0 0 0 0 0 0 0 0 0 0 0 0 0
0 0 0 0 0 0 0 0 0 0 0 0 0 0 0 0 0 0 0 0 0 0 0 0 0 0 0 0 0 0 0 0 0 0 0 0 0 0 0 0 0 0 0
0 0 0 0 0 0 0 0 0 0 0 0 0 0 0 0 0 0 0 0 0 0 0 0 0 0 0 0 0 0 0 0 0 0 0 0 0 0 0 0 0 0 0
0 0 0 0 0 0 0 0 0 0 0 0 0 0 0 0 0 0 0 0 0 0 0 0 0 0 0 0 0 0 0 0 0 0 0 0 0 0 0 0 0 0 0
0 0 0 0 0 0 0 0 0 0 0 0 0 0 0 0 0 0 0 0 0 0 0 0 0 0 0 0 0 0 0 0 0 0 0 0 0 0 0 0 0 0 0
0 0 0 0 0 0 0 0 0 0 0 0 0 0 0 0 0 0 0 0 0 0 0 0 0 0 0 0 0 0 0 0 0 0 0 0 0 0 0 0 0 0 0
0 0 0 0 0 0 0 0 0 0 0 0 0 0 0 0 0 0 0 0 0 0 0 0 0 0 0 0 0 0 0 0 0 0 0 0 0 0 0 0 0 0 0
0 0 0 0 0 0 0 0 0 0 0 0 0 0 0 0 0 0 0 0 0 0 0 0 0 0 0 0 0 0 0 0 0 0 0 0 0 0 0 0 0 0 0
0 0 0 0 0 0 0 0 0 0 0 0 0 0 0 0 0 0 0 0 0 0 0 0 0 0 0 0 0 0 0 0 0 0 0 0 0 0 0 0 0 0 0
0 0 0 0 0 0 0 0 0 0 0 0 0 0 0 0 0 0 0 0 0 0 0 0 0 0 0 0 0 0 0 0 0 0 0 0 0 0 0 0 0 0 0
0 0 0 0 0 0 0 0 0 0 0 0 0 0 0 0 0 0 0 0 0 0 0 0 0 0 0 0 0 0 0 0 0 0 0 0 0 0 0 0 0 0 0
0 0 0 0 0 0 0 0 0 0 0 0 0 0 0 0 0 0 0 0 0 0 0 0 0 0 0 0 0 0 0 0 0 0 0 0 0 0 0 0 0 0 0
0 0 0 0 0 0 0 0 0 0 0 0 0 0 0 0 0 0 0 0 0 0 0 0 0 0 0 0 0 0 0 0 0 0 0 0 0 0 0 0 0 0 0
0 0 0 0 0 0 0 0 0 0 0 0 0 0 0 0 0 0 0 0 0 0 0 0 0 0 0 0 0 0 0 0 0 0 0 0 0 0 0 0 0 0 0
0 1 1 1 0 0 0 0 0 0 0 0 0 0 0 0 0 0 0 0 0 0 0 0 0 0 0 0 0 0 0 0 0 0 0 0 0 0 0 0 0 0 0
1 1 1 1 1 0 0 0 0 0 0 1 1 1 1 0 0 0 0 0 0 0 0 0 0 0 0 0 0 0 0 0 0 0 0 0 0 0 0 0 0 0 0
1 1 1 1 1 0 0 0 0 0 1 1 1 1 1 1 1 1 0 0 0 0 0 0 0 0 0 0 0 0 0 0 0 0 0 0 0 0 0 0 0 0 0
1 1 1 1 1 1 0 0 0 0 1 1 1 1 1 1 1 1 1 0 0 0 0 0 0 0 0 0 0 0 0 0 0 0 0 0 0 0 0 0 0 0 0
1 1 1 1 1 1 0 0 0 0 1 1 1 1 1 1 1 1 1 1 1 0 0 0 0 0 0 0 0 0 0 0 0 0 0 0 0 0 0 0 0 0 0
1 1 1 1 1 1 0 0 0 0 1 1 1 1 1 1 1 0 1 1 1 1 0 0 0 0 0 0 0 0 0 0 0 0 0 0 0 0 0 0 0 0 0
Wind_Speed
2 2 2 1 1 2 2 1 1 1 1 1 0 1 1 0 0 0 3 6 3 2 3 4 4 4 4 4 6 6 7 7 7 6 6 7 6 6 6 6 6 6 5
2 1 1 0 1 1 1 1 2 1 1 1 1 1 1 1 1 1 0 4 6 3 2 2 3 3 3 3 4 5 7 7 7 7 7 7 6 6 6 6 6 6 5
1 0 1 0 1 1 1 0 1 1 1 1 1 1 1 1 1 1 1 1 2 5 4 2 2 2 3 3 5 5 5 6 6 7 7 7 7 7 6 6 6 6 5
1 1 1 1 1 0 0 1 1 0 1 1 1 0 1 1 1 0 0 0 1 1 4 4 2 2 3 3 4 4 5 5 5 6 6 7 7 7 6 6 6 5 5
1 0 1 1 1 0 0 1 1 0 1 0 1 1 0 0 0 0 0 0 0 1 1 4 4 2 1 2 3 3 3 4 4 5 6 7 7 7 6 6 6 5 5
1 1 1 0 1 0 0 1 1 1 1 1 1 1 0 0 0 0 1 0 0 0 1 1 1 3 2 1 1 3 3 3 3 4 5 5 6 6 6 7 6 5 5
1 1 1 0 1 0 1 1 1 1 1 1 1 1 1 1 1 1 0 1 1 1 1 1 1 1 2 4 2 1 2 2 3 4 5 4 5 6 5 6 6 6 5
1 0 1 1 0 0 0 1 1 2 1 1 2 2 1 2 2 1 1 0 1 1 1 0 1 1 2 1 3 3 2 2 3 3 4 4 4 4 5 5 5 6 6
0 1 1 2 1 1 0 1 2 2 2 1 2 2 2 1 0 2 1 1 1 1 1 1 1 1 1 1 1 3 3 3 3 3 4 4 3 3 5 5 5 5 5
1 1 1 1 2 2 1 2 0 2 3 2 1 1 2 2 2 1 1 1 1 1 1 2 1 1 1 1 3 5 4 3 3 3 3 3 3 4 4 5 5 4 5
1 1 1 1 1 1 1 2 1 2 2 2 2 1 1 2 3 3 1 0 0 1 1 1 1 2 2 2 1 5 5 4 3 2 2 2 2 3 3 4 4 4 4
1 0 1 1 2 1 1 1 1 1 2 2 2 2 2 2 2 2 2 1 0 1 1 1 1 1 1 2 4 7 6 5 4 3 3 3 3 3 2 2 3 3 3
1 1 1 1 1 1 1 1 1 1 2 2 2 2 2 2 2 2 2 1 1 0 0 0 1 1 2 2 3 5 5 5 5 4 4 4 4 4 3 3 3 3 3
1 0 1 1 1 1 1 1 2 1 1 2 2 2 2 2 2 2 2 1 1 1 0 0 1 1 2 2 4 1 4 6 5 4 4 4 3 4 4 4 4 4 3
2 2 2 1 1 1 1 2 1 2 1 2 2 2 2 1 2 1 2 2 2 2 0 1 0 1 1 1 3 1 3 6 5 5 4 4 4 4 4 5 5 5 4
2 2 2 1 1 1 2 2 2 1 2 1 1 2 2 1 1 1 1 1 2 2 1 1 0 1 1 1 3 1 3 7 6 5 4 4 4 4 5 5 5 5 5
3 3 3 2 2 2 2 2 2 1 2 2 2 1 1 2 2 1 1 1 1 1 1 1 1 2 2 1 2 1 2 3 5 6 6 5 5 4 4 4 5 5 5
4 4 4 3 3 2 2 2 2 2 2 2 2 2 1 1 1 2 1 1 0 1 1 2 1 2 2 2 2 2 2 2 3 7 6 6 6 5 5 5 5 5 5
4 4 4 4 3 3 3 2 2 2 2 2 2 2 2 1 2 1 2 1 1 2 2 2 2 2 2 2 3 3 2 2 2 6 6 6 5 4 4 5 5 5 5
4 4 4 4 4 3 3 3 3 2 2 1 1 2 2 2 2 2 2 2 2 2 2 3 2 3 2 3 3 3 3 2 1 3 4 4 6 6 5 5 6 5 4
5 5 5 4 4 4 3 3 3 4 3 2 2 2 1 0 1 2 2 1 2 2 2 2 2 3 3 3 3 2 2 3 2 2 2 3 4 4 5 6 6 5 4
5 5 5 5 5 3 2 1 4 4 3 3 3 2 2 3 3 2 1 1 2 3 2 2 2 3 3 4 3 3 3 3 2 2 3 2 2 3 3 3 6 7 6
6 6 6 5 5 3 3 4 5 5 5 4 4 3 3 2 3 3 3 4 2 1 2 4 3 3 3 3 4 4 3 2 2 2 3 3 3 3 3 3 8 8 7
6 6 6 6 5 4 5 6 6 6 5 4 4 4 3 3 3 2 3 4 3 3 3 4 2 3 2 2 4 4 3 3 3 2 3 3 3 3 3 3 9 9 8
6 6 6 6 6 5 6 7 7 5 5 5 4 4 4 4 2 3 4 4 3 3 3 2 1 1 2 1 3 3 4 4 3 3 3 3 2 3 3 4 6 11 10
6 6 5 6 6 6 6 8 8 6 5 5 5 5 4 4 4 5 5 5 4 3 3 4 4 4 5 5 5 5 4 4 4 3 3 4 3 3 3 3 3 5 7
Wind_Direction
71 80 73 57 53 79 123 122 104 96 109 129 124 105 76 62 340 216 122 133 163 196 206 209 210 205 202 205 209 209 212 215 219 218 219 221 220 219 203 197 195 190 194
62 70 118 94 68 54 49 44 103 122 106 82 86 77 36 67 69 8 247 145 153 167 187 214 215 213 214 206 204 211 209 213 223 225 223 221 219 210 200 194 192 195 199
63 338 30 141 62 60 111 144 111 136 150 142 111 80 69 31 59 39 340 310 164 164 174 194 209 222 233 216 205 203 206 209 215 216 216 214 212 209 198 197 199 200 200
24 314 356 36 39 15 63 128 169 145 96 101 93 58 90 106 65 15 318 273 297 217 159 162 195 225 244 231 206 207 204 201 210 210 211 210 206 202 198 202 201 196 197
36 272 17 29 293 5 339 305 91 322 107 129 167 160 167 146 130 317 334 322 289 293 291 146 165 179 226 236 204 189 192 192 200 202 204 207 202 195 193 197 197 196 198
23 334 119 16 306 355 360 25 34 337 289 279 328 58 23 55 197 48 286 229 83 307 311 347 167 167 166 185 185 193 195 184 183 180 182 193 195 190 194 194 192 193 196
30 324 337 80 298 16 334 302 270 201 235 255 240 203 173 168 128 122 336 338 47 18 20 16 353 334 156 162 154 170 184 169 164 168 178 186 186 183 181 187 186 186 184
328 237 319 282 323 300 253 277 258 273 264 257 288 278 232 174 158 119 117 65 357 338 346 32 49 351 318 148 123 154 178 148 144 161 173 174 175 167 158 160 174 182 178
323 335 321 323 324 298 313 268 260 265 274 257 272 283 293 317 28 136 118 88 27 359 354 20 46 11 322 351 89 121 124 133 150 155 148 151 161 159 160 158 156 170 168
292 305 307 316 312 313 312 273 280 268 271 280 254 264 291 318 272 231 168 126 94 21 6 353 19 41 5 29 65 69 84 103 126 151 155 151 147 152 152 154 154 164 168
252 296 295 299 290 303 335 318 308 286 278 289 292 279 262 241 249 262 262 250 24 37 47 13 12 24 30 31 58 76 79 80 87 116 138 147 146 142 143 157 158 161 169
192 218 243 262 269 300 302 294 288 274 305 307 300 295 284 276 267 264 269 258 289 26 43 24 3 27 36 42 63 74 80 82 80 93 114 120 121 117 117 124 153 162 172
189 164 267 261 279 291 283 292 272 306 299 292 288 295 289 287 294 279 268 268 270 264 102 77 30 25 31 45 78 85 92 90 84 87 102 107 107 104 97 97 103 119 126
240 169 239 245 252 258 262 252 260 257 266 275 286 291 282 288 289 273 267 263 258 254 190 43 46 48 35 39 69 101 102 97 90 86 94 102 104 105 98 96 99 98 99
214 192 213 226 239 244 266 258 263 270 271 269 268 248 263 274 266 272 252 247 265 267 276 103 128 88 85 79 91 120 104 103 99 92 96 102 109 106 102 100 101 96 92
222 211 211 221 237 246 252 258 261 273 272 273 285 301 287 284 299 263 257 255 260 265 275 71 94 104 100 116 122 137 115 118 102 96 98 100 105 109 110 107 106 102 101
207 211 211 217 225 235 243 251 281 283 284 293 277 261 269 293 289 276 250 242 240 232 200 164 136 125 154 178 131 154 144 144 115 102 97 98 103 108 113 119 113 109 105
206 205 210 213 221 220 228 242 260 273 283 293 293 290 286 270 255 270 272 252 200 194 204 182 169 149 165 168 139 170 139 128 116 115 112 104 100 106 110 112 110 104 102
204 204 208 216 224 226 224 238 254 260 274 292 299 296 294 288 273 274 259 238 207 191 193 193 184 158 163 156 156 161 142 139 150 135 143 136 127 124 128 128 122 115 111
206 206 211 217 223 226 225 227 232 239 248 261 276 280 281 277 273 256 234 224 219 204 192 202 180 169 158 160 182 172 164 162 174 153 143 155 155 166 165 160 146 136 131
210 207 212 217 223 225 227 228 229 229 230 236 240 254 264 344 5 300 291 249 224 224 203 201 196 182 172 173 191 190 175 168 174 193 173 178 172 181 177 177 169 159 158
209 210 215 220 227 233 129 212 257 245 237 235 234 236 217 188 166 186 216 302 285 248 245 232 214 200 191 192 190 199 195 193 189 185 212 207 198 201 193 182 159 167 179
206 210 216 219 221 206 180 200 233 250 244 241 239 235 244 175 186 195 175 191 209 252 261 261 253 236 206 192 194 204 198 216 224 178 207 214 202 209 209 162 157 174 187
209 212 215 219 221 207 193 207 218 231 243 243 243 239 235 226 217 207 212 206 208 201 217 236 261 270 255 184 202 218 204 200 208 210 220 238 214 215 212 189 168 180 191
212 216 215 217 221 214 197 206 217 223 224 230 234 235 235 228 177 207 222 220 219 206 164 139 12 22 47 180 221 212 202 207 207 200 211 244 239 233 225 214 177 183 193
214 219 218 219 222 224 199 201 216 227 226 225 216 210 212 228 189 205 222 226 225 222 212 182 188 201 204 195 213 233 229 229 228 209 183 227 234 240 238 215 198 187 199